Overview Statistics Trail Chart Weather Telemetry Raw packets
 

This is the latest recevied weather packets stored in our database for station/object KA6UPU-1. If no packets are shown the sender has not sent any weather packets the latest 10 day(s).

<< 5 6 7 8 9 10 11 >>
Time Temp. Humidity Pressure Rain* Wind** Luminosity Snow
1788639253 27.22° C 35% 1013.5 hPa 0 mm - - -
1788638953 27.22° C 36% 1013.6 hPa 0 mm - - -
1788638653 27.22° C 36% 1013.5 hPa 0 mm - - -
1788638353 27.22° C 37% 1013.6 hPa 0 mm - - -
1788637153 27.22° C 38% 1013.8 hPa 0 mm - - -
1788636553 26.67° C 40% 1013.9 hPa 0 mm - - -
1788635653 26.67° C 43% 1014.1 hPa 0 mm - - -
1788635353 26.11° C 44% 1014.1 hPa 0 mm - - -
1788635053 25.56° C 46% 1014.1 hPa 0 mm - - -
1788634753 26.11° C 45% 1014.1 hPa 0 mm - - -
1788634153 25° C 51% 1014.1 hPa 0 mm - - -
1788633853 24.44° C 51% 1014.2 hPa 0 mm - - -
1788633253 24.44° C 51% 1014.3 hPa 0 mm - - -
1788632956 25° C 52% 1014.3 hPa 0 mm - - -
1788632353 24.44° C 52% 1014.3 hPa 0 mm - - -
1788631753 23.89° C 56% 1014.3 hPa 0 mm - - -
1788631453 23.33° C 56% 1014.4 hPa 0 mm - - -
1788631153 22.78° C 58% 1014.4 hPa 0 mm - - -
1788630553 22.78° C 62% 1014.4 hPa 0 mm - - -
1788630253 22.22° C 60% 1014.4 hPa 0 mm - - -
1788629653 22.22° C 64% 1014.4 hPa 0 mm - - -
1788629353 21.67° C 63% 1014.4 hPa 0 mm - - -
1788629054 21.67° C 63% 1014.4 hPa 0 mm - - -
1788628753 21.11° C 64% 1014.3 hPa 0 mm - - -
1788628453 21.11° C 65% 1014.3 hPa 0 mm - - -

* Rain latest hour (hover to see other rain measurements)
** Current wind speed in m/s (hover to see current wind gust speed)